This demonstration page uses our WeatherBlox Daily Observations layout. Learn more.

Left ArrowRight Arrow

53.62937, 11.41316

Hourly Observations for December 31, 2019

Temp ( °F °C ) Dew Point ( °F °C ) Humidity (%) Winds ( mph kmh ) Pressure ( in mb ) Visibility ( mi km ) Precip ( " mm )
12:20 am 00:20 Mostly Cloudy 41 5 34 1 76 76 W 14 22 30.10 1019 30 48 N/A
1:20 am 01:20 Mostly Cloudy 41 5 36 2 81 81 W 16 26 30.07 1018 30 48 N/A
2:20 am 02:20 Mostly Cloudy 43 6 39 4 87 87 W 18 30 30.10 1019 30 48 N/A
2:45 am 02:45 Mostly Cloudy with Light Rain 43 6 39 4 87 87 W 18 30 30.10 1019 30 48 N/A
3:20 am 03:20 Mostly Cloudy 43 6 41 5 93 93 W 18 30 30.10 1019 30 48 N/A
4:20 am 04:20 Mostly Cloudy 45 7 41 5 87 87 WNW 20 31 30.12 1020 30 48 N/A
5:20 am 05:20 Mostly Cloudy 43 6 39 4 87 87 WNW 20 31 30.15 1021 30 48 N/A
6:20 am 06:20 Partly Cloudy 43 6 37 3 81 81 WNW 22 35 30.15 1021 30 48 N/A
7:20 am 07:20 Mostly Clear 43 6 37 3 81 81 WNW 20 31 30.18 1022 30 48 N/A
8:20 am 08:20 Mostly Clear 43 6 37 3 81 81 W 20 31 30.18 1022 30 48 N/A
9:20 am 09:20 Mostly Sunny 43 6 37 3 81 81 WNW 20 31 30.21 1023 30 48 N/A
10:20 am 10:20 Mostly Sunny 43 6 37 3 81 81 WNW 21 33 30.24 1024 30 48 N/A
11:20 am 11:20 Mostly Cloudy 45 7 37 3 76 76 WNW 20 31 30.27 1025 30 48 N/A
12:20 pm 12:20 Mostly Sunny 45 7 37 3 76 76 NW 18 30 30.30 1026 30 48 N/A
1:20 pm 13:20 Partly Cloudy 45 7 37 3 76 76 WNW 20 31 30.33 1027 30 48 N/A
2:20 pm 14:20 Partly Cloudy 45 7 37 3 76 76 WNW 16 26 30.33 1027 30 48 N/A
3:20 pm 15:20 Mostly Cloudy 43 6 37 3 81 81 WNW 14 22 30.36 1028 30 48 N/A
4:20 pm 16:20 Mostly Clear 41 5 36 2 81 81 WNW 12 19 30.39 1029 30 48 N/A
5:20 pm 17:20 Mostly Clear 39 4 36 2 87 87 WNW 10 17 30.42 1030 30 48 N/A
6:20 pm 18:20 Mostly Clear 39 4 36 2 87 87 W 8 13 30.45 1031 30 48 N/A
7:20 pm 19:20 Partly Cloudy 39 4 36 2 87 87 W 6 9 30.45 1031 30 48 N/A
8:20 pm 20:20 Mostly Clear 37 3 34 1 87 87 W 8 13 30.48 1032 30 48 N/A
9:20 pm 21:20 Mostly Clear 36 2 34 1 93 93 W 8 13 30.45 1031 30 48 N/A
10:20 pm 22:20 Mostly Clear 36 2 34 1 93 93 W 5 7 30.48 1032 30 48 N/A
11:20 pm 23:20 Mostly Clear 36 2 34 1 93 93 WSW 5 7 30.48 1032 30 48 N/A

Powered by AerisWeather